VE6CPK-13 Weather Reports


Display with metric or nautical units.
time (UTC)temp
F
wind
direction
speed
MPH
gust
MPH
rain 1hr
in
rain 24hr
in
rain mn
in
humidity
%
barometer
mb
20260506011830 49 31 0.0 8.0 0.00 0.01 0.01 30 1014.9
20260506011330 49 27 0.0 8.0 0.00 0.01 0.01 30 1014.9
20260506010832 49 16 3.0 8.0 0.00 0.01 0.01 30 1014.8
20260506010332 50 13 1.0 8.0 0.00 0.01 0.01 30 1014.9
20260506005832 50 15 0.0 8.0 0.00 0.01 0.01 29 1015.0
20260506005332 50 339 2.0 8.0 0.00 0.01 0.01 29 1015.0
20260506004832 50 12 1.0 8.0 0.00 0.01 0.01 29 1015.0
20260506004331 50 10 1.0 8.0 0.00 0.01 0.01 30 1015.0
20260506003831 50 21 2.0 8.0 0.00 0.01 0.01 30 1014.9
20260506003331 50 5 0.0 8.0 0.00 0.01 0.01 31 1014.9
20260506002830 50 5 0.0 8.0 0.00 0.01 0.01 31 1014.9
20260506002332 50 31 0.0 8.0 0.00 0.01 0.01 31 1014.9
20260506001832 50 20 2.0 8.0 0.00 0.01 0.01 31 1015.0
20260506001332 50 176 0.0 8.0 0.00 0.01 0.01 32 1015.1
20260506000832 50 180 0.0 8.0 0.00 0.01 0.01 31 1015.1
20260506000331 50 172 0.0 8.0 0.00 0.01 0.01 31 1015.2
20260505235831 50 202 0.0 8.0 0.00 0.01 0.01 31 1015.1
20260505235331 50 174 2.0 8.0 0.00 0.01 0.01 31 1015.1
20260505234832 50 339 0.0 8.0 0.00 0.01 0.01 31 1015.1
20260505234331 51 30 0.0 8.0 0.00 0.01 0.01 30 1015.2
20260505233831 51 334 2.0 8.0 0.00 0.01 0.01 31 1015.2
20260505233331 51 8 0.0 8.0 0.00 0.01 0.01 31 1015.2
20260505232831 51 27 1.0 8.0 0.00 0.01 0.01 30 1015.3
20260505232331 51 15 2.0 8.0 0.00 0.01 0.01 30 1015.2
20260505231830 51 99 0.0 8.0 0.00 0.01 0.01 31 1015.3
20260505231330 51 173 2.0 8.0 0.00 0.01 0.01 32 1015.4
20260505230830 51 18 0.0 8.0 0.00 0.01 0.01 31 1015.5
20260505230330 51 22 1.0 8.0 0.00 0.01 0.01 31 1015.6
20260505225830 51 44 1.0 8.0 0.00 0.01 0.01 32 1015.6
20260505225330 51 211 1.0 8.0 0.00 0.01 0.01 31 1015.7
20260505224830 51 9 0.0 8.0 0.00 0.01 0.01 32 1015.7
20260505224330 51 31 0.0 8.0 0.00 0.01 0.01 31 1015.8
20260505223830 51 28 2.0 8.0 0.00 0.01 0.01 31 1015.9
20260505223332 51 6 1.0 8.0 0.00 0.01 0.01 31 1015.9
20260505222831 51 31 1.0 8.0 0.00 0.01 0.01 31 1015.9
20260505222331 51 335 0.0 8.0 0.00 0.01 0.01 31 1016.0
20260505221831 51 40 2.0 8.0 0.00 0.01 0.01 31 1016.0
20260505221331 51 13 2.0 8.0 0.00 0.01 0.01 33 1016.0
20260505220831 51 13 2.0 8.0 0.00 0.01 0.01 33 1016.1
20260505220331 51 1 3.0 8.0 0.00 0.01 0.01 32 1016.2
20260505215831 51 19 2.0 8.0 0.00 0.01 0.01 32 1016.2
20260505215331 51 30 1.0 8.0 0.00 0.01 0.01 33 1016.2
20260505214830 51 331 1.0 8.0 0.00 0.01 0.01 33 1016.3
20260505214331 51 12 0.0 8.0 0.00 0.01 0.01 34 1016.4
20260505213831 50 4 3.0 8.0 0.00 0.01 0.01 33 1016.4
20260505213331 50 107 0.0 8.0 0.00 0.01 0.01 34 1016.4
20260505212831 50 0 2.0 8.0 0.00 0.01 0.01 34 1016.6
20260505212331 50 28 5.0 8.0 0.00 0.01 0.01 34 1016.5
20260505211831 50 50 0.0 8.0 0.00 0.01 0.01 33 1016.5
20260505211329 50 13 1.0 8.0 0.00 0.01 0.01 33 1016.6
20260505210831 50 61 3.0 8.0 0.00 0.01 0.01 34 1016.7
20260505210330 50 344 1.0 8.0 0.00 0.01 0.01 34 1016.8
20260505205830 50 48 0.0 8.0 0.00 0.01 0.01 35 1016.8
20260505205330 49 345 1.0 8.0 0.00 0.01 0.01 35 1016.8
20260505204830 49 18 3.0 8.0 0.00 0.01 0.01 34 1017.0
20260505204330 49 18 1.0 8.0 0.00 0.01 0.01 35 1016.9
20260505203830 49 12 2.0 8.0 0.00 0.01 0.01 35 1016.9
20260505203330 48 38 0.0 8.0 0.00 0.01 0.01 36 1017.0
20260505202830 49 10 1.0 8.0 0.00 0.01 0.01 35 1017.1
20260505202330 49 8 2.0 8.0 0.00 0.01 0.01 36 1017.1
20260505201830 49 33 1.0 8.0 0.00 0.01 0.01 36 1017.0
20260505201329 49 5 0.0 8.0 0.00 0.01 0.01 36 1017.0
20260505200829 49 16 3.0 8.0 0.00 0.01 0.01 35 1017.1
20260505200329 49 18 2.0 8.0 0.00 0.01 0.01 35 1017.2
20260505195831 49 5 1.0 7.0 0.00 0.01 0.01 34 1017.1
20260505195331 50 348 2.0 7.0 0.00 0.01 0.01 34 1017.2
20260505194831 50 5 0.0 7.0 0.00 0.01 0.01 34 1017.1
20260505194331 50 44 2.0 7.0 0.00 0.01 0.01 34 1017.3
20260505193831 49 5 1.0 7.0 0.00 0.01 0.01 35 1017.3
20260505193331 49 60 3.0 7.0 0.00 0.01 0.01 34 1017.2
20260505192830 49 55 1.0 7.0 0.00 0.01 0.01 35 1017.4
20260505192330 48 17 0.0 7.0 0.00 0.01 0.01 36 1017.4
20260505191829 48 358 1.0 7.0 0.00 0.01 0.01 35 1017.5
20260505191329 48 29 3.0 7.0 0.00 0.01 0.01 35 1017.4
20260505190829 48 138 1.0 7.0 0.00 0.01 0.01 36 1017.3
20260505190330 48 16 2.0 7.0 0.00 0.01 0.01 35 1017.4
20260505185830 48 8 1.0 7.0 0.00 0.01 0.01 36 1017.5
20260505185331 48 31 1.0 7.0 0.00 0.01 0.01 39 1017.5
20260505184829 48 13 3.0 7.0 0.00 0.01 0.01 36 1017.6
20260505184329 49 0 0.0 7.0 0.00 0.01 0.01 36 1017.5
20260505183829 49 21 3.0 7.0 0.00 0.01 0.01 39 1017.5
20260505183330 48 0 0.0 7.0 0.00 0.01 0.01 40 1017.5
20260505182830 48 22 2.0 7.0 0.00 0.01 0.01 40 1017.6
20260505182330 47 7 1.0 7.0 0.00 0.01 0.01 42 1017.6
20260505181831 47 42 1.0 7.0 0.00 0.01 0.01 40 1017.7
20260505181330 48 14 3.0 7.0 0.00 0.01 0.01 39 1017.7
20260505180830 48 31 1.0 7.0 0.00 0.01 0.01 41 1017.6
20260505180330 47 33 1.0 7.0 0.00 0.01 0.01 40 1017.6
20260505175829 47 42 0.0 7.0 0.00 0.01 0.01 42 1017.6
20260505175329 46 40 1.0 7.0 0.00 0.01 0.01 44 1017.5
20260505174830 45 11 0.0 7.0 0.00 0.01 0.01 44 1017.6
20260505174330 45 12 0.0 7.0 0.00 0.01 0.01 44 1017.6
20260505173835 44 24 1.0 7.0 0.00 0.01 0.01 46 1017.6
20260505173334 43 41 0.0 7.0 0.00 0.01 0.01 46 1017.6
20260505172835 43 11 1.0 7.0 0.00 0.01 0.01 48 1017.7
20260505172335 42 8 0.0 7.0 0.00 0.01 0.01 49 1017.7
20260505171833 42 29 0.0 7.0 0.00 0.01 0.01 49 1017.7
20260505171334 42 25 1.0 7.0 0.00 0.01 0.01 51 1017.7
20260505170833 42 0 1.0 7.0 0.00 0.01 0.01 50 1017.7
20260505170334 41 38 0.0 7.0 0.00 0.01 0.01 51 1017.6
20260505165835 41 344 1.0 7.0 0.00 0.01 0.01 52 1017.6
20260505165333 41 22 0.0 7.0 0.00 0.01 0.01 53 1017.6
20260505164834 41 7 2.0 7.0 0.00 0.01 0.01 54 1017.6
20260505164334 41 14 2.0 7.0 0.00 0.01 0.01 53 1017.6
20260505163834 41 21 2.0 7.0 0.00 0.01 0.01 54 1017.6
20260505163335 41 5 1.0 7.0 0.00 0.01 0.01 58 1017.5
20260505162833 41 5 0.0 7.0 0.00 0.01 0.01 58 1017.4
20260505162333 41 27 0.0 7.0 0.00 0.01 0.01 60 1017.4
20260505161834 40 28 0.0 7.0 0.00 0.01 0.01 61 1017.4
20260505161334 40 30 2.0 7.0 0.00 0.01 0.01 59 1017.4
20260505160834 40 355 1.0 7.0 0.00 0.01 0.01 62 1017.5
20260505160335 39 28 0.0 7.0 0.00 0.01 0.01 64 1017.5
20260505153334 38 36 1.0 7.0 0.00 0.01 0.01 66 1017.6
20260505152834 38 35 0.0 7.0 0.00 0.01 0.01 67 1017.5
20260505152333 38 35 0.0 7.0 0.00 0.01 0.01 68 1017.5
20260505151833 37 35 0.0 7.0 0.00 0.01 0.01 68 1017.6
20260505151333 37 26 0.0 7.0 0.00 0.01 0.01 67 1017.6
20260505150834 37 26 0.0 7.0 0.00 0.01 0.01 68 1017.5
20260505150334 37 26 0.0 7.0 0.00 0.01 0.01 70 1017.5
20260505140334 37 53 0.0 7.0 0.01 0.01 0.01 74 1017.3
20260505124833 36 25 0.0 7.0 0.00 0.00 0.00 68 1017.2
20260505124333 36 25 0.0 7.0 0.00 0.00 0.00 68 1017.2
20260505123833 36 25 0.0 7.0 0.00 0.00 0.00 69 1017.1
20260505123333 36 25 0.0 7.0 0.00 0.00 0.00 69 1017.1
20260505122833 36 25 0.0 7.0 0.00 0.00 0.00 69 1017.0
20260505122332 35 25 0.0 7.0 0.00 0.00 0.00 69 1017.0
20260505121832 35 25 0.0 7.0 0.00 0.00 0.00 70 1016.9
20260505121332 35 25 0.0 7.0 0.00 0.00 0.00 70 1016.9
20260505120834 35 25 0.0 7.0 0.00 0.00 0.00 70 1016.9
20260505120334 35 25 0.0 7.0 0.00 0.00 0.00 71 1016.9
20260505115834 35 25 0.0 7.0 0.00 0.00 0.00 71 1016.8
20260505115333 35 25 0.0 7.0 0.00 0.00 0.00 72 1016.7
20260505114832 35 24 0.0 7.0 0.00 0.00 0.00 73 1016.7
20260505114333 35 44 0.0 7.0 0.00 0.00 0.00 72 1016.7
20260505113832 35 46 0.0 7.0 0.00 0.00 0.00 72 1016.7
20260505113333 35 8 0.0 7.0 0.00 0.00 0.00 72 1016.7
20260505112832 36 26 0.0 7.0 0.00 0.00 0.00 72 1016.7
20260505112333 36 23 0.0 7.0 0.00 0.00 0.00 72 1016.6
20260505111833 36 9 1.0 7.0 0.00 0.00 0.00 72 1016.8
20260505111334 36 11 0.0 7.0 0.00 0.00 0.00 71 1016.6
20260505110834 36 0 0.0 7.0 0.00 0.00 0.00 70 1016.6
20260505110334 36 18 1.0 7.0 0.00 0.00 0.00 70 1016.7
20260505101832 38 16 1.0 6.0 0.00 0.00 0.00 69 1016.3
20260505101332 38 42 1.0 6.0 0.00 0.00 0.00 68 1016.3
20260505100833 38 22 2.0 6.0 0.00 0.00 0.00 68 1016.2
20260505100333 38 11 1.0 6.0 0.00 0.00 0.00 68 1016.0
20260505095832 39 14 1.0 6.0 0.00 0.00 0.00 67 1016.1
20260505095332 39 8 2.0 6.0 0.00 0.00 0.00 67 1016.0
20260505094832 39 5 1.0 6.0 0.00 0.00 0.00 66 1016.0
20260505094332 39 21 1.0 6.0 0.00 0.00 0.00 65 1016.0
20260505093832 39 0 2.0 6.0 0.00 0.00 0.00 65 1015.9
20260505093332 39 1 2.0 6.0 0.00 0.00 0.00 64 1015.9
20260505092832 39 15 1.0 6.0 0.00 0.00 0.00 63 1015.9
20260505092332 39 355 1.0 4.0 0.00 0.00 0.00 63 1015.9
20260505091833 39 5 1.0 4.0 0.00 0.00 0.00 62 1015.9
20260505091333 40 19 2.0 4.0 0.00 0.00 0.00 62 1015.9
20260505090832 40 1 1.0 4.0 0.00 0.00 0.00 61 1015.8
20260505090332 40 9 0.0 4.0 0.00 0.00 0.00 60 1015.7
20260505085832 40 2 1.0 4.0 0.00 0.00 0.00 60 1015.7
20260505085332 40 9 0.0 4.0 0.00 0.00 0.00 59 1015.7
20260505084833 40 13 0.0 4.0 0.00 0.00 0.00 59 1015.7
20260505084333 40 12 1.0 4.0 0.00 0.00 0.00 59 1015.7
20260505083832 40 0 1.0 4.0 0.00 0.00 0.00 59 1015.6
20260505083333 40 30 0.0 4.0 0.00 0.00 0.00 59 1015.6
20260505082832 40 17 1.0 4.0 0.00 0.00 0.00 59 1015.6
20260505082332 40 42 1.0 4.0 0.00 0.00 0.00 59 1015.6
20260505081832 40 11 0.0 4.0 0.00 0.00 0.00 59 1015.5
20260505081332 40 7 0.0 4.0 0.00 0.00 0.00 58 1015.5
20260505080832 40 355 1.0 4.0 0.00 0.00 0.00 58 1015.5
20260505080333 40 0 1.0 4.0 0.00 0.00 0.00 57 1015.4
20260505075832 41 346 1.0 4.0 0.00 0.00 0.00 56 1015.5
20260505075333 41 345 0.0 4.0 0.00 0.00 0.00 55 1015.4
20260505074831 41 342 0.0 4.0 0.00 0.00 0.00 54 1015.4
20260505074333 41 341 0.0 4.0 0.00 0.00 0.00 54 1015.3
20260505073832 41 341 0.0 4.0 0.00 0.00 0.00 53 1015.4
20260505073332 41 341 0.0 4.0 0.00 0.00 0.00 53 1015.5
20260505072833 41 341 0.0 4.0 0.00 0.00 0.00 52 1015.4
20260505072333 41 341 0.0 4.0 0.00 0.00 0.00 52 1015.4
20260505071832 42 341 0.0 4.0 0.00 0.00 0.00 51 1015.5
20260505071331 42 334 1.0 4.0 0.00 0.00 0.00 50 1015.4
20260505070832 42 45 1.0 4.0 0.00 0.01 0.00 49 1015.5
20260505070331 42 25 0.0 4.0 0.00 0.01 0.00 47 1015.5
20260505065832 43 103 0.0 4.0 0.00 0.01 0.00 46 1015.4
20260505065331 43 106 0.0 4.0 0.00 0.01 0.00 45 1015.4
20260505064832 43 103 0.0 4.0 0.00 0.01 0.00 44 1015.4
20260505064333 43 342 0.0 4.0 0.00 0.01 0.00 44 1015.3
20260505063831 43 329 0.0 4.0 0.00 0.01 0.00 43 1015.3
20260505063332 43 329 1.0 4.0 0.00 0.01 0.00 42 1015.3
20260505062831 44 341 1.0 4.0 0.00 0.01 0.00 41 1015.4
20260505062332 44 6 0.0 4.0 0.00 0.01 0.00 40 1015.3
20260505061833 44 349 1.0 4.0 0.00 0.01 0.00 40 1015.3
20260505061331 44 15 1.0 4.0 0.00 0.01 0.00 39 1015.2
20260505060831 44 13 1.0 4.0 0.00 0.01 0.00 37 1015.2
20260505060332 44 17 0.0 3.0 0.00 0.01 0.00 37 1015.2
20260505055832 44 0 1.0 15.0 0.00 0.01 0.01 36 1015.2
20260505055331 45 19 2.0 15.0 0.00 0.01 0.01 36 1015.1
20260505054831 45 10 3.0 15.0 0.00 0.01 0.01 36 1015.2
20260505054332 45 4 2.0 15.0 0.00 0.01 0.01 37 1015.1
20260505053831 45 14 2.0 15.0 0.00 0.01 0.01 36 1015.0
20260505053331 45 24 1.0 15.0 0.00 0.01 0.01 36 1015.0
20260505052832 45 20 0.0 15.0 0.00 0.01 0.01 35 1015.0
20260505052332 46 14 1.0 15.0 0.00 0.01 0.01 35 1014.9
20260505051832 46 11 1.0 15.0 0.00 0.01 0.01 35 1014.8
20260505051332 46 9 1.0 15.0 0.00 0.01 0.01 35 1014.7
20260505050831 46 12 0.0 15.0 0.00 0.01 0.01 35 1014.7
20260505050332 46 357 2.0 15.0 0.00 0.01 0.01 35 1014.6
20260505041332 47 44 0.0 15.0 0.00 0.01 0.01 35 1014.0
20260505040832 47 30 0.0 15.0 0.00 0.01 0.01 35 1014.0
20260505040331 47 8 3.0 15.0 0.00 0.01 0.01 34 1013.9
20260505035831 47 351 0.0 15.0 0.00 0.01 0.01 35 1013.9
20260505035331 48 19 2.0 15.0 0.00 0.01 0.01 35 1013.8
20260505034831 48 34 0.0 15.0 0.00 0.01 0.01 35 1013.7
20260505034331 48 22 0.0 15.0 0.00 0.01 0.01 35 1013.7
20260505033831 48 35 1.0 15.0 0.00 0.01 0.01 34 1013.6
20260505033331 48 10 1.0 15.0 0.00 0.01 0.01 34 1013.5
20260505032831 48 11 1.0 15.0 0.00 0.01 0.01 34 1013.5
20260505032331 48 13 2.0 15.0 0.00 0.01 0.01 34 1013.4
20260505031831 48 356 2.0 15.0 0.00 0.01 0.01 33 1013.4
20260505031331 48 26 2.0 15.0 0.00 0.01 0.01 34 1013.2
20260505030831 48 28 1.0 15.0 0.00 0.01 0.01 34 1013.2
20260505030332 49 26 3.0 15.0 0.00 0.01 0.01 33 1013.2
20260505025832 49 13 2.0 15.0 0.00 0.01 0.01 33 1013.1
20260505025331 49 30 2.0 15.0 0.00 0.01 0.01 33 1013.0
20260505024832 49 3 2.0 15.0 0.00 0.01 0.01 33 1013.0
20260505024331 49 4 2.0 15.0 0.00 0.01 0.01 33 1012.9
20260505023831 49 18 2.0 15.0 0.00 0.01 0.01 32 1012.8
20260505023331 49 0 2.0 15.0 0.00 0.01 0.01 32 1012.8
20260505022831 50 21 2.0 15.0 0.00 0.01 0.01 31 1012.7
20260505022332 50 30 1.0 15.0 0.00 0.01 0.01 31 1012.6
20260505021832 50 20 1.0 15.0 0.00 0.01 0.01 31 1012.6
20260505021330 50 24 3.0 15.0 0.00 0.01 0.01 31 1012.6
20260505020832 50 14 2.0 15.0 0.00 0.01 0.01 30 1012.6
20260505020330 50 1 2.0 15.0 0.00 0.01 0.01 31 1012.5
20260505015831 50 10 2.0 15.0 0.00 0.01 0.01 30 1012.4
20260505015331 51 350 3.0 15.0 0.00 0.01 0.01 29 1012.4
20260505014832 51 15 5.0 15.0 0.00 0.01 0.01 29 1012.2
20260505014331 51 1 3.0 15.0 0.00 0.01 0.01 29 1012.2
20260505013832 51 22 2.0 15.0 0.00 0.01 0.01 28 1012.1
20260505013331 51 13 3.0 15.0 0.00 0.01 0.01 28 1012.1
20260505012832 52 9 1.0 15.0 0.00 0.01 0.01 28 1012.1
20260505012332 52 4 3.0 15.0 0.00 0.01 0.01 27 1012.0